www.pogodaiklimat.ru

Погода и климат >> Архив погоды >> Россия >> Чукотка >> Айон Остров


ПОГОДА на Айон Острове

  • Прогноз погоды на Айон Острове
  • Монитор погоды на Айон Острове
  • Климат города

АРХИВ ПОГОДЫ на Айон Острове

Время (UTC), дата Ветер
(напр.,м/с)
 
Видим.   Явления Облачность Т
(С)
Тd
(С)
f
(%)
Тe
(С)
Тes
(С)
Комфортность P
(гПа)
Po
(гПа)
Тmin
(С)
Tmax
(С)
R
(мм)
R24
(мм)
S
(см)
06 17.08 СЗ 5-6
{8}
20 км 10/10 420 м
[St]
+3.3 +2.0 91 -2 -2 1007.6 1005.9
09 17.08 СЗ 5-7
{7}
20 км 10/10 420 м
[St]
+3.5 +2.1 91 -2 -2 1008.2 1006.5 +3.8
12 17.08 СЗ 7-10
{10}
20 км 10/10 270 м
[St]
+4.4 +3.2 92 -1 -1 1008.4 1006.7
15 17.08 СЗ 8-10
{11}
20 км в посл. час дождь 10/10 300 м
[St]
+4.5 +3.6 94 -2 -2 1008.3 1006.6
18 17.08 СЗ 9-11
{13}
20 км {дождь} 10/10 360 м
[St]
+4.3 +2.7 89 -2 -2 1009.0 1007.3
21 17.08 СЗ 8-12
{13}
20 км 10/10 500 м
[Sc]
+4.9 +2.9 87 -1 -1 1010.3 1008.6 +3.5 0.7
00 18.08 СЗ 9-11
{12}
20 км 10/10 500 м
[Sc]
+4.7 +3.1 89 -2 -2 1011.4 1009.7
03 18.08 СЗ 7-10
{11}
20 км 10/10 540 м
[Sc]
+4.8 +2.6 86 -1 -1 1012.2 1010.5
06 18.08 СЗ 7-9
{14}
20 км 10/10 630 м
[Sc]
+5.0 +3.0 87 -1 -1 1012.7 1011.0
09 18.08 СЗ 5-7
{9}
20 км 10/10 570 м
[Sc]
+5.1 +2.3 82 +1 +1 1012.9 1011.2 +5.2
12 18.08 СЗ 6-7
{8}
20 км 10/10 600 м
[Sc]
+4.6 +2.3 85 -1 -1 1013.3 1011.6
15 18.08 СЗ 6-7
{8}
20 км 10/10 480 м
[Sc]
+5.2 +3.2 87 0 0 1013.0 1011.3
18 18.08 СЗ 3-4
{7}
20 км 10/10 450 м
[St]
+5.3 +3.9 91 +2 +2 1013.5 1011.8
21 18.08 СЗ 4-5
{6}
20 км 10/5 300 м
[Sc Ac trans]
+6.5 +3.5 81 +3 +3 1013.8 1012.1 +4.4
00 19.08 З 5-6
{7}
20 км 10/6 500 м
[Sc Ac und]
+7.1 +4.5 84 +3 +3 1014.3 1012.6
03 19.08 З 4-5
{6}
20 км 6/0
[Ac trans Ci fib]
+7.7 +4.9 82 +4 +7 1014.7 1013.0
06 19.08 З 2-3
{5}
20 км 3/0
[Ac trans Ci fib]
+7.8 +4.7 81 +6 +7 1013.7 1012.0
09 19.08 Ю 5-5
{5}
20 км 8/0
[Ac trans Ci fib]
+4.6 +3.9 95 -0 -0 1013.2 1011.5 +8.7
12 19.08 ЮВ 5-6
{7}
20 км 10/0
[Ac trans Ci fib]
+5.6 +5.1 97 +1 +1 1012.4 1010.7
15 19.08 ЮВ 8-9
{9}
20 км 9/0
[Ac trans]
+6.3 +5.5 95 +1 +1 1010.5 1008.8
18 19.08 Ю 8-10
{10}
20 км 10/0
[Ac trans Ci fib]
+6.8 +6.1 95 +1 +1 1009.5 1007.8
21 19.08 Ю 8-10
{10}
20 км 10/0
[Ac trans Ci fib]
+9.5 +6.9 84 +5 +6 1008.4 1006.7 +4.6
00 20.08 ЮВ 6-8
{10}
20 км 10/0
[Ac trans Ci fib]
+13.4 +7.2 66 +11 +13 1007.0 1005.4
03 20.08 ЮВ 6-8
{8}
20 км 10/0
[Ac trans Ci fib]
+14.3 +6.6 60 +13 +14 1004.8 1003.2
06 20.08 ЮВ 4-6
{8}
20 км 10/0
[Ac und]
+14.2 +7.5 64 +13 +13 1002.6 1001.0
09 20.08 ЮЗ 5-8
{8}
20 км 10/3 300 м
[Sc As trans]
+11.9 +7.8 76 +9 +9 1001.7 1000.0 +15.0
12 20.08 ЮЗ 2-2
{8}
20 км 10/0
[Ac und]
+9.2 +7.7 90 +7 +7 1001.4 999.7
15 20.08 ЮЗ 6-8
{10}
20 км слабый дождь 10/0
[As op]
+8.5 +7.8 95 +4 +4 1002.2 1000.5
18 20.08 З 3-5
{8}
20 км слабый дождь 10/0
[As op]
+8.1 +7.7 97 +5 +5 1002.7 1001.0
21 20.08 СЗ 7-8
{8}
20 км {дождь} 10/0
[As op]
+6.8 +5.9 94 +2 +2 1005.5 1003.8 +6.8 1
00 21.08 СЗ 9-11
{12}
20 км {дождь} 10/5 300 м
[St As op]
+7.3 +6.7 96 +2 +2 1008.0 1006.3
03 21.08 СЗ 8-10
{11}
20 км 10/10 210 м
[St]
+7.5 +6.8 95 +2 +2 1009.7 1008.0
06 21.08 СЗ 8-10
{11}
20 км 10/10 240 м
[St]
+7.2 +6.5 95 +2 +2 1011.1 1009.4
09 21.08 СЗ 4-6
{10}
20 км 10/10 270 м
[St]
+7.1 +6.2 94 +3 +3 1012.2 1010.5 +7.7
12 21.08 СЗ 4-5
{7}
20 км 10/10 270 м
[St]
+7.1 +6.2 94 +3 +3 1012.8 1011.1
15 21.08 СЗ 7-8
{8}
20 км {дождь} 10/10 240 м
[St]
+6.9 +6.3 96 +2 +2 1013.6 1011.9
18 21.08 З 7-8
{10}
4000 м слабая морось {дождь} 10/10 300 м
[St]
+6.2 +5.6 96 +1 +1 1014.5 1012.8
21 21.08 СЗ 5-7
{9}
20 км в посл. час морось 10/10 270 м
[St]
+6.4 +5.7 95 +2 +2 1015.5 1013.8 +6.0 0.4
00 22.08 СЗ 6-8
{9}
4000 м слабая морось 10/10 300 м
[St]
+6.3 +5.9 97 +1 +1 1016.3 1014.6
03 22.08 СЗ 2-3
{8}
20 км {морось} 9/3 300 м
[St Ac trans]
+7.0 +5.3 89 +5 +6 1016.3 1014.6
06 22.08 С 1-2
{4}
20 км {морось} 10/3 300 м
[St Ac trans Ci fib]
+7.1 +5.6 90 +6 +7 1015.8 1014.1
09 22.08 штиль 0
{2}
20 км 8/3 300 м
[St Ac trans]
+5.8 +4.7 93 +5 +5 1015.8 1014.1 +7.6 0.0
12 22.08 В 3-3
{3}
20 км 10/0
[Ac trans Ci fib]
+3.0 +2.1 94 -1 -1 1015.3 1013.6
15 22.08 ЮВ 4-4
{4}
20 км 10/4 300 м
[Sc Ac trans Ci fib]
+3.8 +3.1 95 -1 -1 1014.4 1012.7
18 22.08 В 2-3
{5}
20 км 10/3 600 м
[Sc Ac trans Ci fib]
+5.2 +4.3 94 +2 +3 1013.5 1011.8
21 22.08 ЮВ 4-6
{6}
20 км 10/0
[Ac und]
+7.4 +5.6 88 +4 +4 1012.1 1010.4 +2.3
00 23.08 В 5-6
{7}
20 км 10/8 420 м
[St Ac und]
+8.1 +6.5 90 +4 +4 1011.3 1009.6
03 23.08 В 4-7
{8}
20 км 10/3 300 м
[St Ac und]
+9.5 +6.2 80 +7 +7 1009.7 1008.0
06 23.08 В 4-6
{8}
20 км 9/0
[Ac trans Ci fib]
+9.4 +5.8 78 +7 +7 1008.7 1007.0
09 23.08 В 3-5
{7}
20 км 8/0
[Ac trans Ci fib]
+7.3 +6.4 94 +4 +4 1008.5 1006.8 +10.1
12 23.08 В 2-3
{5}
10 км 8/0
[Ac trans Ci fib]
+4.9 +4.2 95 +2 +2 1008.0 1006.3
15 23.08 В 3-4
{5}
4000 м дымка 9/0
[Ac trans Ci fib]
+4.1 +3.9 99 0 0 1006.9 1005.2
18 23.08 В 4-5
{6}
4000 м дымка 4/0
[Ac trans]
+4.2 +4.0 99 -0 -0 1007.2 1005.5
21 23.08 В 4-6
{6}
20 км 3/0
[Ac trans Ci fib]
+9.6 +7.7 88 +7 +8 1006.9 1005.2 +2.8
00 24.08 В 5-5
{9}
20 км 5/0
[Ac trans Ci fib]
+12.5 +8.0 74 +10 +12 1006.4 1004.7
03 24.08 В 5-5
{9}
20 км 8/0
[Ac trans Ci fib]
+13.3 +7.8 69 +11 +13 1005.9 1004.3

 

Местоположение метеостанции Айон Остров (Чукотка, Россия): широта 69.93 долгота 167.90 высота над уровнем моря 14 м.

В архиве по умолчанию представлена погода на Айон Острове за последнюю неделю. Архивные данные за месяц целиком и за предыдущие месяцы, начиная с января 2011 года, Вы можете получить, выбрав интересующий диапазон дат из раскрывающегося списка и нажав кнопку "Ввод!".

Внимание! Время в таблицах - всемирное. Для получения местного времени необходимо прибавить поправку, которая на Айон Острове равна 12 ч.

Смотрите также архив погоды в соседних городах и на ближайших метеорологических станциях:

Погода в Раучуе (Чукотка, Россия) (72 км)
Погода в Певеке (Чукотка, Россия) (92 км)
Погода в Валькаркае (Чукотка, Россия) (115 км)
Погода в 21 км (Чукотка, Россия) (117 км)
Погода в Чауне (Чукотка, Россия) (160 км)
Погода в Комсомольской (Чукотка, Россия) (211 км)
Погода в Билибино (Чукотка, Россия) (217 км)
Погода в Бухте Амбарчик (Чукотка, Россия) (218 км)
Погода на Островном (Чукотка, Россия) (252 км)
Погода в Паляваам-Глубокой (Чукотка, Россия) (257 км)

Пояснения к столбцам:

Ветер - указаны скорость ветра в м/с - средняя за 10 мин, порывы в срок и между сроками (в фигурных скобках) и направление, откуда дует ветер: С - северный, СВ - северо-восточный, В - восточный, ЮВ - юго-восточный, Ю - южный, ЮЗ - юго-западный, З - западный, СЗ - северо-западный.
Видимость - горизонтальная дальность видимости в метрах или километрах. При видимости от 1 до 10 км при отсутствии осадков обычно наблюдается дымка, при ухудшении видимости до 1 км и менее - туман. В сухую погоду видимость может ухудшаться дымом, пылью или мглою.
Явления - указаны атмосферные явления, наблюдавшиеся в срок или в последний час перед сроком; фигурными скобками обозначены явления, наблюдавшиеся между сроками (за 1-3 часа до срока); квадратными скобками обозначены град или гололедные отложения с указанием их диаметра в мм.
Облачность - указаны через наклонную черту общая и нижняя облачность в баллах и высота нижней границы облаков в метрах; квадратными скобками обозначены формы облаков: Ci - перистые, Cs - перисто-слоистые, Cc - перисто-кучевые, Ac - высококучевые, As - высокослоистые, Sc - слоисто-кучевые, Ns - слоисто-дождевые, Cu - кучевые, Cb - кучево-дождевые. Подробнее классификацию облаков см. в Атласе облаков (PDF).
T - Температура воздуха - температура, измеренная на высоте 2 м над землей.
Td - Температура точки росы - температура, при понижении до которой содержащийся в воздухе водяной пар достигнет насыщения.
f - Относительная влажность воздуха - влажноcть воздуха, измеренная на высоте 2 м над землей.
Te - Эффективная температура - температура, которую ощущает одетый по сезону человек в тени. Характеристика душности погоды. При расчете учитывается влияние влажности воздуха и скорости ветра на теплоощущения человека.
Tes - Эффективная температура на солнце - температура, которую ощущает человек, с поправкой на солнечный нагрев. Характеристика знойности погоды. Зависит от высоты солнца над горизонтом, облачности и скорости ветра. Ночью, в пасмурную погоду, а также при ветре 12 м/с и более поправка равна нулю.
P - Атмосферное давление - приведенное к уровню моря атмосферное давление.
Po - Атмосферное давление - измеренное на уровне метеостанции атмосферное давление.
Tmin - Минимальная температура - минимум температуры воздуха на высоте 2 м над землей.
Tmax - Максимальная температура - максимум температуры воздуха на высоте 2 м над землей.
R - Количество осадков - Количество выпавших осадков за период времени, мм. При наведении курсора мыши на число - период времени, за который выпало указанное количество осадков.
R24 - Количество осадков - Количество выпавших осадков за 24 часа, мм.
S - Снежный покров - Высота снежного покрова, см. При наведении курсора мыши на число - состояние снежного покрова и степень покрытия местности в баллах.